This is the latest recevied weather packets stored in our database for station/object W8UFO-13. If no packets are shown the sender has not sent any weather packets the latest 1 day(s).
| Time | Temp. | Humidity | Pressure | Rain* | Wind** | Luminosity | Snow |
|---|---|---|---|---|---|---|---|
| 1778004857 | 24.44° C | 51% | 1015.5 hPa | 0 mm | 1.79 m/s, 248° | - | - |
| 1778004557 | 23.89° C | 53% | 1015.7 hPa | 0 mm | 0.45 m/s, 270° | - | - |
| 1778004257 | 23.89° C | 51% | 1015.8 hPa | 0 mm | 1.34 m/s, 293° | - | - |
| 1778003957 | 23.89° C | 52% | 1015.7 hPa | 0 mm | 1.34 m/s, 203° | - | - |
| 1778003657 | 23.89° C | 52% | 1015.7 hPa | 0 mm | 1.34 m/s, 248° | - | - |
| 1778003357 | 23.89° C | 50% | 1015.9 hPa | 0 mm | 1.79 m/s, 158° | - | - |
| 1778003057 | 23.89° C | 52% | 1015.9 hPa | 0 mm | 0.89 m/s, 135° | - | - |
| 1778002757 | 23.89° C | 54% | 1016 hPa | 0 mm | 0.45 m/s, 270° | - | - |
| 1778002457 | 23.33° C | 52% | 1016 hPa | 0 mm | 0.89 m/s, 225° | - | - |
| 1778002157 | 23.33° C | 53% | 1016.1 hPa | 0 mm | 1.79 m/s, 270° | - | - |
| 1778001857 | 23.33° C | 53% | 1016.1 hPa | 0 mm | 0.45 m/s, 0° | - | - |
| 1778001557 | 23.33° C | 54% | 1016.1 hPa | 0 mm | 0.89 m/s, 248° | - | - |
| 1778001257 | 23.33° C | 54% | 1016.2 hPa | 0 mm | 0.89 m/s, 225° | - | - |
| 1778000957 | 23.33° C | 53% | 1016.3 hPa | 0 mm | 0.89 m/s, 135° | - | - |
| 1778000657 | 23.33° C | 52% | 1016.4 hPa | 0 mm | 1.34 m/s, 293° | - | - |
| 1778000357 | 23.33° C | 52% | 1016.4 hPa | 0 mm | 1.34 m/s, 248° | - | - |
| 1778000057 | 23.33° C | 51% | 1016.7 hPa | 0 mm | 1.79 m/s, 135° | - | - |
| 1777999757 | 23.33° C | 53% | 1016.7 hPa | 0 mm | 1.34 m/s, 248° | - | - |
| 1777999457 | 23.33° C | 53% | 1016.9 hPa | 0 mm | 2.24 m/s, 293° | - | - |
| 1777999157 | 23.33° C | 54% | 1016.9 hPa | 0 mm | 1.34 m/s, 158° | - | - |
| 1777998857 | 23.33° C | 54% | 1016.8 hPa | 0 mm | 0.89 m/s, 248° | - | - |
| 1777998557 | 23.33° C | 55% | 1016.9 hPa | 0 mm | 0.45 m/s, 248° | - | - |
| 1777998257 | 23.33° C | 53% | 1016.9 hPa | 0 mm | 0.89 m/s, 248° | - | - |
| 1777997657 | 23.89° C | 55% | 1016.8 hPa | 0 mm | 0.45 m/s, 180° | - | - |
| 1777997357 | 23.89° C | 55% | 1016.9 hPa | 0 mm | 0.89 m/s, 248° | - | - |
* Rain latest hour (hover to see other rain measurements)
** Current wind speed in m/s (hover to see current wind gust speed)